• en Suisse
  • Liste des pays
  • À 7 jours
  • Température de l'eau
  • Carte satellitaire
  • Carte météo
  • Widgets météo
  • user-avatar
    Se connecter

    Météo par heure à Seredivka

    Ce jour, 20 Septembre, Jeudi

    Heure Température Précipitation Vent Pression Humidité
    00:00 +18°C° 0 mm 2 m/s 754 mmHg 75%
    01:00 +17°C° 0 mm 2 m/s 754 mmHg 77%
    02:00 +17°C° 0 mm 2 m/s 754 mmHg 79%
    03:00 +17°C° 0 mm 2 m/s 754 mmHg 80%
    04:00 +16°C° 0 mm 2 m/s 754 mmHg 82%
    05:00 +16°C° 0 mm 2 m/s 754 mmHg 84%
    06:00 +17°C° 0 mm 2 m/s 754 mmHg 80%
    07:00 +18°C° 0 mm 2 m/s 755 mmHg 76%
    08:00 +20°C° 0 mm 2 m/s 755 mmHg 73%
    09:00 +21°C° 0 mm 2 m/s 755 mmHg 67%
    10:00 +24°C° 0 mm 2 m/s 755 mmHg 61%
    11:00 +26°C° 0 mm 3 m/s 755 mmHg 54%
    12:00 +26°C° 0 mm 3 m/s 754 mmHg 51%
    13:00 +27°C° 0 mm 3 m/s 754 mmHg 48%
    14:00 +28°C° 0 mm 3 m/s 754 mmHg 45%
    15:00 +27°C° 0 mm 2 m/s 754 mmHg 49%
    16:00 +26°C° 0 mm 2 m/s 754 mmHg 52%
    17:00 +25°C° 0 mm 2 m/s 754 mmHg 56%
    18:00 +24°C° 0 mm 1 m/s 754 mmHg 59%
    19:00 +22°C° 0 mm 1 m/s 754 mmHg 61%
    20:00 +21°C° 0 mm 1 m/s 754 mmHg 64%
    21:00 +20°C° 0 mm 1 m/s 754 mmHg 66%
    22:00 +20°C° 0 mm 1 m/s 754 mmHg 67%
    23:00 +20°C° 0 mm 1 m/s 754 mmHg 69%

    Demain, 21 Septembre, Vendredi

    Heure Température Précipitation Vent Pression Humidité
    00:00 +19°C° 0 mm 1 m/s 754 mmHg 71%
    01:00 +19°C° 0 mm 1 m/s 754 mmHg 73%
    02:00 +18°C° 0 mm 1 m/s 754 mmHg 74%
    03:00 +16°C° 0 mm 0 m/s 754 mmHg 76%
    04:00 +16°C° 0 mm 0 m/s 754 mmHg 78%
    05:00 +15°C° 0 mm 0 m/s 754 mmHg 79%
    06:00 +17°C° 0 mm 0 m/s 754 mmHg 75%
    07:00 +18°C° 0 mm 0 m/s 755 mmHg 71%
    08:00 +20°C° 0 mm 0 m/s 755 mmHg 66%
    09:00 +21°C° 0 mm 0 m/s 755 mmHg 61%
    10:00 +25°C° 0 mm 1 m/s 755 mmHg 57%
    11:00 +26°C° 0 mm 1 m/s 755 mmHg 52%
    12:00 +27°C° 0 mm 1 m/s 755 mmHg 49%
    13:00 +27°C° 0 mm 1 m/s 754 mmHg 47%
    14:00 +28°C° 0 mm 1 m/s 754 mmHg 44%
    15:00 +27°C° 0 mm 1 m/s 754 mmHg 47%
    16:00 +26°C° 0 mm 1 m/s 754 mmHg 50%
    17:00 +25°C° 0 mm 1 m/s 753 mmHg 54%
    18:00 +24°C° 0 mm 1 m/s 753 mmHg 56%
    19:00 +23°C° 0 mm 1 m/s 753 mmHg 58%
    20:00 +21°C° 0 mm 1 m/s 754 mmHg 61%
    21:00 +21°C° 0 mm 1 m/s 753 mmHg 62%
    22:00 +19°C° 0 mm 2 m/s 753 mmHg 63%
    23:00 +19°C° 0 mm 2 m/s 753 mmHg 64%

    Après-demain, 22 Septembre, Samedi

    Heure Température Précipitation Vent Pression Humidité
    00:00 +19°C° 0 mm 2 m/s 753 mmHg 65%
    01:00 +18°C° 0 mm 2 m/s 753 mmHg 66%
    02:00 +18°C° 0 mm 2 m/s 753 mmHg 67%
    03:00 +17°C° 0 mm 2 m/s 753 mmHg 68%
    04:00 +17°C° 0 mm 2 m/s 752 mmHg 70%
    05:00 +17°C° 0 mm 2 m/s 752 mmHg 71%
    06:00 +18°C° 0 mm 3 m/s 752 mmHg 68%
    07:00 +19°C° 0 mm 3 m/s 752 mmHg 65%
    08:00 +21°C° 0 mm 3 m/s 752 mmHg 62%
    09:00 +22°C° 0 mm 4 m/s 752 mmHg 56%
    10:00 +25°C° 0 mm 4 m/s 752 mmHg 49%
    11:00 +27°C° 0 mm 5 m/s 751 mmHg 43%
    12:00 +28°C° 0 mm 5 m/s 751 mmHg 41%
    13:00 +28°C° 0 mm 5 m/s 750 mmHg 38%
    14:00 +29°C° 0 mm 6 m/s 750 mmHg 35%
    15:00 +28°C° 0 mm 5 m/s 750 mmHg 40%
    16:00 +27°C° 0 mm 4 m/s 749 mmHg 45%
    17:00 +26°C° 0 mm 3 m/s 749 mmHg 49%
    18:00 +24°C° 0 mm 3 m/s 749 mmHg 52%
    19:00 +22°C° 0 mm 3 m/s 749 mmHg 55%
    20:00 +20°C° 0 mm 3 m/s 750 mmHg 58%
    21:00 +19°C° 0 mm 4 m/s 750 mmHg 63%
    22:00 +18°C° 0 mm 4 m/s 750 mmHg 67%
    23:00 +15°C° 0 mm 4 m/s 749 mmHg 72%

    23 Septembre, Dimanche

    Heure Température Précipitation Vent Pression Humidité
    00:00 +14°C° 0.2 mm 5 m/s 749 mmHg 74%
    01:00 +13°C° 0.2 mm 5 m/s 749 mmHg 77%
    02:00 +13°C° 0.2 mm 5 m/s 749 mmHg 79%
    03:00 +12°C° 1.2 mm 5 m/s 750 mmHg 82%
    04:00 +9°C° 1.2 mm 6 m/s 750 mmHg 85%
    05:00 +8°C° 1.2 mm 6 m/s 750 mmHg 88%
    06:00 +9°C° 0.9 mm 6 m/s 750 mmHg 86%
    07:00 +9°C° 0.9 mm 5 m/s 750 mmHg 85%
    08:00 +9°C° 0.9 mm 5 m/s 751 mmHg 83%
    09:00 +10°C° 0 mm 5 m/s 751 mmHg 78%
    10:00 +13°C° 0 mm 5 m/s 751 mmHg 72%
    11:00 +14°C° 0 mm 5 m/s 751 mmHg 67%
    12:00 +15°C° 0.1 mm 6 m/s 751 mmHg 61%
    13:00 +16°C° 0.1 mm 6 m/s 751 mmHg 55%
    14:00 +17°C° 0.1 mm 6 m/s 750 mmHg 49%
    15:00 +16°C° 0 mm 5 m/s 751 mmHg 52%
    16:00 +17°C° 0 mm 4 m/s 751 mmHg 54%
    17:00 +16°C° 0 mm 3 m/s 751 mmHg 56%
    18:00 +14°C° 0 mm 3 m/s 751 mmHg 57%
    19:00 +14°C° 0 mm 3 m/s 751 mmHg 58%
    20:00 +13°C° 0 mm 3 m/s 752 mmHg 59%
    21:00 +12°C° 0 mm 3 m/s 752 mmHg 62%
    22:00 +13°C° 0 mm 2 m/s 752 mmHg 65%
    23:00 +12°C° 0 mm 2 m/s 752 mmHg 68%

    24 Septembre, Lundi

    Heure Température Précipitation Vent Pression Humidité
    00:00 +10°C° 0 mm 2 m/s 751 mmHg 70%
    01:00 +10°C° 0 mm 2 m/s 751 mmHg 72%
    02:00 +10°C° 0 mm 2 m/s 750 mmHg 74%
    03:00 +10°C° 0 mm 2 m/s 750 mmHg 73%
    04:00 +10°C° 0 mm 3 m/s 750 mmHg 73%
    05:00 +10°C° 0 mm 3 m/s 750 mmHg 72%
    06:00 +11°C° 0 mm 4 m/s 749 mmHg 68%
    07:00 +10°C° 0 mm 5 m/s 748 mmHg 64%
    08:00 +12°C° 0 mm 5 m/s 748 mmHg 60%
    09:00 +13°C° 0 mm 6 m/s 747 mmHg 57%
    10:00 +14°C° 0 mm 7 m/s 746 mmHg 54%
    11:00 +15°C° 0 mm 8 m/s 746 mmHg 51%
    12:00 +17°C° 0 mm 9 m/s 745 mmHg 49%
    13:00 +18°C° 0 mm 9 m/s 743 mmHg 48%
    14:00 +21°C° 0 mm 10 m/s 742 mmHg 47%
    15:00 +21°C° 0 mm 10 m/s 741 mmHg 50%
    16:00 +21°C° 0 mm 10 m/s 740 mmHg 52%
    17:00 +21°C° 0 mm 10 m/s 739 mmHg 55%
    18:00 +18°C° 1.9 mm 9 m/s 738 mmHg 64%
    19:00 +17°C° 1.9 mm 9 m/s 738 mmHg 73%
    20:00 +16°C° 1.9 mm 9 m/s 738 mmHg 81%
    21:00 +15°C° 1.2 mm 8 m/s 738 mmHg 81%
    22:00 +13°C° 1.2 mm 8 m/s 738 mmHg 80%
    23:00 +12°C° 1.2 mm 7 m/s 739 mmHg 79%

    25 Septembre, Mardi

    Heure Température Précipitation Vent Pression Humidité
    00:00 +11°C° 0 mm 7 m/s 739 mmHg 79%
    01:00 +10°C° 0 mm 8 m/s 739 mmHg 78%
    02:00 +9°C° 0 mm 8 m/s 739 mmHg 78%
    03:00 +9°C° 0 mm 8 m/s 738 mmHg 76%
    04:00 +9°C° 0 mm 8 m/s 738 mmHg 74%
    05:00 +8°C° 0 mm 9 m/s 738 mmHg 73%
    06:00 +8°C° 0.1 mm 9 m/s 738 mmHg 73%
    07:00 +8°C° 0.1 mm 10 m/s 738 mmHg 73%
    08:00 +9°C° 0.1 mm 10 m/s 738 mmHg 73%
    09:00 +9°C° 0.1 mm 10 m/s 739 mmHg 72%
    10:00 +9°C° 0.1 mm 10 m/s 740 mmHg 72%
    11:00 +9°C° 0.1 mm 10 m/s 741 mmHg 72%
    12:00 +9°C° 0.1 mm 10 m/s 742 mmHg 71%
    13:00 +9°C° 0.1 mm 10 m/s 743 mmHg 70%
    14:00 +9°C° 0.1 mm 10 m/s 744 mmHg 68%
    15:00 +10°C° 0 mm 9 m/s 745 mmHg 67%
    16:00 +10°C° 0 mm 7 m/s 745 mmHg 66%
    17:00 +9°C° 0 mm 6 m/s 746 mmHg 64%
    18:00 +9°C° 0 mm 5 m/s 746 mmHg 66%
    19:00 +8°C° 0 mm 5 m/s 747 mmHg 67%
    20:00 +7°C° 0 mm 4 m/s 748 mmHg 68%
    21:00 +7°C° 0 mm 4 m/s 748 mmHg 67%
    22:00 +6°C° 0 mm 4 m/s 748 mmHg 67%
    23:00 +6°C° 0 mm 4 m/s 749 mmHg 66%
    Voir plus